Williston, ND

12:10 PM CST on February 08, 2016 (GMT -0600)
Sloulin International

Weather History for KISN - December, 2011

Change the Weather History Date:

Thursday, December 1, 2011

  Actual Average Record
Temperature  
Mean Temperature 22 °F 19 °F  
Max Temperature 28 °F 29 °F 56 °F (1969)
Min Temperature 15 °F 9 °F -22 °F (1896)
Degree Days  
Heating Degree Days 43 46  
Month to date heating degree days 43 46  
Since 1 July heating degree days 1808 2208  
Cooling Degree Days 0 0  
Month to date cooling degree days 0 0  
Year to date cooling degree days 452 456  
Moisture  
Dew Point 20 °F    
Average Humidity 85    
Maximum Humidity 92    
Minimum Humidity 78    
Precipitation  
Precipitation 0.00 in 0.02 in 0.31 in (1928)
Month to date precipitation 0.00 0.02  
Year to date precipitation 19.05 13.77  
Snow  
Snow 0.00 in 0.20 in 6.20 in (1972)
Month to date snowfall 0.2  
Since 1 July snowfall T 9.1  
Snow Depth -    
Sea Level Pressure  
Sea Level Pressure 30.47 in    
Wind  
Wind Speed 11 mph (WSW)    
Max Wind Speed 22 mph    
Max Gust Speed 26 mph    
Visibility 10 miles    
Events      
T = Trace of Precipitation, MM = Missing Value Source: NWS Daily Summary

Daily Weather History Graph

Daily Weather History Graph

Search for Another Location

Airport or City:

Trip Planner

Search our weather history database for the weather conditions in past years. The results will help you decide how hot, cold, wet, or windy it might be!

Date:

Astronomy

Dec. 01, 2011 Rise Set
Actual Time 8:23 AM CST 5:03 PM CST
Civil Twilight 7:48 AM CST 5:38 PM CST
Nautical Twilight 7:09 AM CST 6:17 PM CST
Astronomical Twilight 6:31 AM CST 6:55 PM CST
Moon 12:50 PM CST (12/1) No Moon Set
Length of Visible Light 9h 50m
Length of Day
8h 39m
Waxing Crescent, 43% of the Moon is Illuminated
Dec 1
Waxing Crescent
Dec 2
First Quarter
Dec 10
Full
Dec 17
Last Quarter
Dec 24
New

Hourly Weather History & Observations

Time (CST) Temp. Windchill Dew Point Humidity Pressure Visibility Wind Dir Wind Speed Gust Speed Precip Events Conditions
12:52 AM 19.9 °F 9.3 °F 16.0 °F 85% 30.60 in 10.0 mi NW 9.2 mph - N/A   Partly Cloudy
1:52 AM 17.1 °F 11.7 °F 14.0 °F 88% 30.63 in 10.0 mi NW 3.5 mph - N/A   Scattered Clouds
2:52 AM 19.9 °F 14.9 °F 17.1 °F 89% 30.64 in 10.0 mi WNW 3.5 mph - N/A   Overcast
3:15 AM 21.2 °F 10.9 °F 17.6 °F 86% 30.55 in 10.0 mi West 9.2 mph - N/A   Overcast
3:28 AM 21.2 °F 10.9 °F 17.6 °F 86% 30.55 in 10.0 mi West 9.2 mph - N/A   Overcast
3:52 AM 21.9 °F 13.4 °F 18.0 °F 85% 30.65 in 10.0 mi West 6.9 mph - N/A   Overcast
4:01 AM 21.2 °F 12.6 °F 19.4 °F 93% 30.55 in 10.0 mi WNW 6.9 mph - N/A   Overcast
4:37 AM 23.0 °F 13.9 °F 19.4 °F 86% 30.54 in 10.0 mi West 8.1 mph - N/A   Overcast
4:52 AM 23.0 °F 13.1 °F 19.9 °F 88% 30.65 in 10.0 mi WNW 9.2 mph - N/A   Overcast
5:06 AM 23.0 °F 13.1 °F 19.4 °F 86% 30.55 in 10.0 mi West 9.2 mph - N/A   Overcast
5:22 AM 23.0 °F 13.9 °F 19.4 °F 86% 30.54 in 10.0 mi West 8.1 mph - N/A   Overcast
5:52 AM 21.9 °F 11.0 °F 19.0 °F 89% 30.64 in 10.0 mi West 10.4 mph - N/A   Overcast
6:52 AM 23.0 °F 13.1 °F 19.0 °F 85% 30.65 in 10.0 mi West 9.2 mph - N/A   Overcast
7:52 AM 21.0 °F 9.9 °F 18.0 °F 88% 30.65 in 10.0 mi West 10.4 mph - N/A   Partly Cloudy
8:52 AM 21.9 °F 12.5 °F 17.1 °F 82% 30.64 in 10.0 mi West 8.1 mph - N/A   Partly Cloudy
9:52 AM 21.0 °F 11.4 °F 18.0 °F 88% 30.65 in 10.0 mi SW 8.1 mph - N/A   Mostly Cloudy
10:45 AM 24.8 °F 15.3 °F 21.2 °F 86% 30.54 in 10.0 mi SW 9.2 mph - N/A   Overcast
10:52 AM 25.0 °F 17.1 °F 21.0 °F 85% 30.64 in 10.0 mi SSW 6.9 mph - N/A   Overcast
11:52 AM 27.0 °F 14.7 °F 21.9 °F 81% 30.61 in 10.0 mi WSW 16.1 mph 19.6 mph N/A   Overcast
12:05 PM 26.6 °F 14.3 °F 23.0 °F 86% 30.50 in 10.0 mi West 16.1 mph 21.9 mph N/A   Overcast
12:52 PM 28.4 °F 15.1 °F 23.0 °F 80% 30.46 in 10.0 mi WSW 20.7 mph 25.3 mph N/A   Overcast
1:25 PM 28.4 °F 17.5 °F 23.0 °F 80% 30.43 in 10.0 mi WSW 13.8 mph - N/A   Overcast
1:52 PM 28.0 °F 17.0 °F 24.1 °F 85% 30.51 in 10.0 mi SW 13.8 mph 23.0 mph N/A   Mostly Cloudy
2:04 PM 28.4 °F 16.6 °F 23.0 °F 80% 30.40 in 10.0 mi SW 16.1 mph 24.2 mph N/A   Scattered Clouds
2:52 PM 26.6 °F 14.3 °F 21.2 °F 80% 30.37 in 10.0 mi SW 16.1 mph 23.0 mph N/A   Partly Cloudy
3:52 PM 27.0 °F 17.3 °F 21.9 °F 81% 30.42 in 10.0 mi SW 10.4 mph 18.4 mph N/A   Clear
4:52 PM 27.0 °F 17.3 °F 21.9 °F 81% 30.37 in 10.0 mi SSW 10.4 mph - N/A   Clear
5:52 PM 24.1 °F 16.0 °F 21.0 °F 88% 30.33 in 10.0 mi SW 6.9 mph - N/A   Clear
6:52 PM 26.1 °F 13.6 °F 21.9 °F 84% 30.27 in 10.0 mi SW 16.1 mph 23.0 mph N/A   Clear
7:52 PM 24.8 °F 12.4 °F 21.2 °F 86% 30.13 in 10.0 mi SW 15.0 mph - N/A   Clear
8:52 PM 24.8 °F 14.0 °F 19.4 °F 80% 30.09 in 10.0 mi SW 11.5 mph - N/A   Clear
9:52 PM 24.1 °F 13.7 °F 19.0 °F 81% 30.16 in 10.0 mi SW 10.4 mph - N/A   Clear
10:52 PM 25.0 °F 13.1 °F 19.9 °F 81% 30.10 in 10.0 mi SW 13.8 mph 21.9 mph N/A   Clear
11:52 PM 24.8 °F 12.9 °F 19.4 °F 80% 29.96 in 10.0 mi SW 13.8 mph 19.6 mph N/A   Clear